FW6320 Weather Reports


time (UTC)temp
C
wind
direction
speed
KPH
gust
KPH
rain 1hr
cm
rain 24hr
cm
rain mn
cm
humidity
%
barometer
mb
20260506092520 12 315 1.6 12.9 0.00 0.00 0.00 78 1011.2
20260506092020 12 0 0.0 12.9 0.00 0.00 0.00 78 1011.0
20260506091535 12 340 3.2 12.9 0.00 0.00 0.00 78 1011.0
20260506091016 12 323 1.6 12.9 0.00 0.00 0.00 78 1010.9
20260506090519 12 0 1.6 12.9 0.00 0.00 0.00 78 1010.9
20260506090034 12 290 4.8 12.9 0.00 0.00 0.00 78 1010.8
20260506085519 12 289 3.2 16.1 0.00 0.00 0.00 78 1010.8
20260506085019 12 290 3.2 16.1 0.00 0.00 0.00 78 1010.8
20260506084534 12 259 3.2 14.5 0.00 0.00 0.00 78 1010.6
20260506084022 12 263 1.6 11.3 0.00 0.00 0.00 79 1010.7
20260506083520 12 265 0.0 16.1 0.00 0.00 0.00 79 1010.5
20260506083051 12 352 4.8 16.1 0.00 0.00 0.00 79 1010.5
20260506082520 12 283 6.4 19.3 0.00 0.00 0.00 78 1010.6
20260506082020 12 275 3.2 19.3 0.00 0.00 0.00 79 1010.6
20260506081545 12 273 3.2 9.7 0.00 0.00 0.00 79 1010.7
20260506081023 12 307 3.2 9.7 0.00 0.00 0.00 79 1010.7
20260506080520 12 313 0.0 6.4 0.00 0.00 0.00 79 1010.7
20260506073522 13 0 1.6 9.7 0.00 0.00 0.00 80 1010.6
20260506073036 13 0 0.0 8.0 0.00 0.00 0.00 80 1010.5
20260506072525 13 328 1.6 12.9 0.00 0.00 0.00 80 1010.5
20260506072021 12 333 3.2 16.1 0.00 0.00 0.00 80 1010.3
20260506071543 12 336 6.4 16.1 0.00 0.00 0.00 80 1009.8
20260506071017 13 360 6.4 16.1 0.00 0.00 0.00 80 1009.6
20260506070519 13 360 6.4 16.1 0.00 0.00 0.00 80 1009.7
20260506062020 13 333 8.0 17.7 0.00 0.00 0.00 79 1010.2
20260506061539 13 360 4.8 17.7 0.00 0.00 0.00 80 1010.2
20260506061017 13 346 9.7 17.7 0.00 0.00 0.00 79 1010.2
20260506060520 13 327 3.2 12.9 0.00 0.00 0.00 80 1010.1
20260506051020 14 0 3.2 14.5 0.00 0.00 0.00 81 1010.3
20260506050519 14 0 1.6 14.5 0.00 0.00 0.00 81 1010.4
20260506045016 14 252 3.2 14.5 0.00 0.00 0.00 81 1010.2
20260506044541 14 296 3.2 14.5 0.00 0.00 0.00 81 1010.2
20260506044020 14 304 1.6 11.3 0.00 0.00 0.00 82 1010.1
20260506043516 14 335 1.6 11.3 0.00 0.00 0.00 82 1010.2
20260506043036 15 267 1.6 11.3 0.00 0.00 0.00 82 1010.1
20260506042517 15 338 3.2 9.7 0.00 0.00 0.00 82 1010.1
20260506042100 15 270 1.6 14.5 0.00 0.00 0.00 81 1010.3
20260506041538 15 272 4.8 14.5 0.00 0.00 0.00 81 1010.3
20260506041016 15 0 0.0 11.3 0.00 0.00 0.00 82 1010.1
20260506040521 15 281 1.6 12.9 0.00 0.00 0.00 82 1010.1
20260506040035 15 337 1.6 12.9 0.00 0.00 0.00 82 1010.2
20260506035517 15 284 1.6 14.5 0.00 0.00 0.00 82 1010.1
20260506035017 15 277 3.2 17.7 0.00 0.00 0.00 81 1010.0
20260506034542 15 0 3.2 17.7 0.00 0.00 0.00 81 1009.9
20260506034020 15 279 3.2 12.9 0.00 0.00 0.00 81 1010.0
20260506033516 15 0 3.2 14.5 0.00 0.00 0.00 81 1009.9
20260506033038 15 254 4.8 16.1 0.00 0.00 0.00 81 1009.8
20260506032519 15 259 4.8 22.5 0.00 0.00 0.00 81 1009.6
20260506032017 15 303 6.4 22.5 0.00 0.00 0.00 80 1009.4
20260506031539 16 309 6.4 20.9 0.00 0.00 0.00 80 1009.4
20260506031023 16 22 6.4 20.9 0.00 0.00 0.00 80 1009.3
20260506030520 16 336 4.8 17.7 0.00 0.00 0.00 81 1009.2
20260506030036 16 299 6.4 17.7 0.00 0.00 0.00 80 1009.3
20260506025522 16 338 3.2 14.5 0.00 0.00 0.00 80 1009.2
20260506025018 16 0 3.2 14.5 0.00 0.00 0.00 80 1009.2
20260506024539 16 319 3.2 14.5 0.00 0.00 0.00 80 1009.2
20260506024018 16 335 4.8 14.5 0.00 0.00 0.00 80 1009.0
20260506023520 16 328 3.2 16.1 0.00 0.00 0.00 80 1009.0
20260506023041 16 0 3.2 16.1 0.00 0.00 0.00 80 1008.8
20260506022523 16 330 3.2 16.1 0.00 0.00 0.00 79 1008.7
20260506022019 17 0 3.2 16.1 0.00 0.00 0.00 79 1008.7
20260506021536 17 331 3.2 22.5 0.00 0.00 0.00 78 1008.5
20260506021020 17 355 4.8 22.5 0.00 0.00 0.00 78 1008.4
20260506020518 17 333 11.3 22.5 0.00 0.00 0.00 78 1008.2
20260506020039 17 350 1.6 9.7 0.00 0.00 0.00 78 1008.1
20260506015519 18 0 1.6 9.7 0.00 0.00 0.00 78 1008.0
20260506015019 18 319 3.2 11.3 0.00 0.00 0.00 78 1007.7
20260506014534 18 342 3.2 11.3 0.00 0.00 0.00 77 1007.6
20260506014018 18 333 0.0 9.7 0.00 0.00 0.00 77 1007.6
20260506013520 18 0 0.0 9.7 0.00 0.00 0.00 77 1007.5
20260506013040 18 328 3.2 12.9 0.00 0.00 0.00 77 1007.2
20260506012519 18 0 0.0 12.9 0.00 0.00 0.00 76 1007.0
20260506012021 18 326 1.6 12.9 0.00 0.00 0.00 76 1007.0
20260506011600 18 0 3.2 12.9 0.00 0.00 0.00 75 1006.9
20260506011019 18 331 1.6 20.9 0.00 0.00 0.00 76 1006.6
20260506010517 18 0 6.4 20.9 0.00 0.00 0.00 75 1006.4
20260506010037 18 269 6.4 25.7 0.00 0.00 0.00 75 1006.2
20260506005519 19 272 6.4 25.7 0.00 0.00 0.00 75 1005.9
20260506005016 19 337 1.6 19.3 0.00 0.00 0.00 74 1006.0
20260506004547 19 248 6.4 20.9 0.00 0.00 0.00 74 1006.1
20260506004018 19 269 9.7 22.5 0.00 0.00 0.00 73 1006.1
20260506003517 19 263 11.3 22.5 0.00 0.00 0.00 73 1006.2
20260506003032 20 267 11.3 20.9 0.00 0.00 0.00 73 1006.0
20260506002519 20 288 9.7 20.9 0.00 0.00 0.00 73 1006.1
20260506002017 20 288 8.0 20.9 0.00 0.00 0.00 74 1005.8
20260506001543 20 292 9.7 20.9 0.00 0.00 0.00 73 1005.6
20260506001018 20 271 8.0 17.7 0.00 0.00 0.00 73 1005.7
20260506000524 21 280 8.0 17.7 0.00 0.00 0.00 73 1005.7
20260506000108 21 275 6.4 17.7 0.00 0.00 0.00 73 1006.1
20260505235519 21 262 3.2 17.7 0.00 0.00 0.00 72 1005.9
20260505235017 21 307 4.8 17.7 0.00 0.00 0.00 72 1005.7
20260505234544 21 293 9.7 20.9 0.00 0.00 0.00 72 1005.7
20260505234020 21 248 12.9 20.9 0.00 0.00 0.00 71 1005.6
20260505233517 22 277 11.3 17.7 0.00 0.00 0.00 71 1005.7
20260505233034 22 300 6.4 19.3 0.00 0.00 0.00 71 1005.8
20260505232522 22 237 8.0 19.3 0.00 0.00 0.00 71 1005.7
20260505232019 22 290 12.9 19.3 0.00 0.00 0.00 70 1005.3
20260505231540 23 262 8.0 17.7 0.00 0.00 0.00 69 1005.4
20260505231019 23 248 4.8 17.7 0.00 0.00 0.00 69 1005.3
20260505230521 23 294 4.8 25.7 0.00 0.00 0.00 69 1005.4
20260505230059 23 273 11.3 25.7 0.00 0.00 0.00 69 1005.1
20260505225523 24 309 14.5 24.1 0.00 0.00 0.00 67 1005.3
20260505225017 24 267 9.7 24.1 0.00 0.00 0.00 67 1005.2
20260505224540 24 313 11.3 24.1 0.00 0.00 0.00 67 1005.3
20260505224016 25 275 8.0 22.5 0.00 0.00 0.00 67 1005.0
20260505223516 25 286 11.3 22.5 0.00 0.00 0.00 66 1005.0
20260505223032 25 248 11.3 24.1 0.00 0.00 0.00 66 1004.9
20260505222522 25 279 12.9 24.1 0.00 0.00 0.00 66 1004.9
20260505222017 26 306 4.8 19.3 0.00 0.00 0.00 64 1004.9
20260505221546 26 339 6.4 19.3 0.00 0.00 0.00 64 1004.8
20260505221017 26 270 4.8 19.3 0.00 0.00 0.00 64 1004.6
20260505220518 26 274 9.7 20.9 0.00 0.00 0.00 62 1004.5
20260505220040 27 267 8.0 20.9 0.00 0.00 0.00 61 1004.5
20260505215519 27 238 4.8 24.1 0.00 0.00 0.00 61 1004.5
20260505215020 27 217 4.8 24.1 0.00 0.00 0.00 62 1004.4
20260505214535 27 266 11.3 24.1 0.00 0.00 0.00 61 1004.2
20260505214019 27 271 6.4 17.7 0.00 0.00 0.00 63 1004.4
20260505213518 27 285 4.8 14.5 0.00 0.00 0.00 61 1004.4
20260505213037 27 238 1.6 22.5 0.00 0.00 0.00 61 1004.5
20260505212517 27 262 8.0 24.1 0.00 0.00 0.00 60 1004.7
20260505212018 27 286 12.9 24.1 0.00 0.00 0.00 60 1004.5
20260505211537 28 254 11.3 24.1 0.00 0.00 0.00 60 1004.5
20260505211017 28 288 9.7 24.1 0.00 0.00 0.00 58 1004.5
20260505210517 28 288 9.7 20.9 0.00 0.00 0.00 55 1004.5
20260505210041 28 193 4.8 19.3 0.00 0.00 0.00 55 1004.5
20260505205517 28 254 8.0 19.3 0.00 0.00 0.00 52 1004.7
20260505205019 28 292 3.2 22.5 0.00 0.00 0.00 54 1004.6
20260505204546 28 254 4.8 22.5 0.00 0.00 0.00 52 1004.6
20260505204019 28 235 8.0 22.5 0.00 0.00 0.00 50 1004.8
20260505203519 28 270 8.0 22.5 0.00 0.00 0.00 51 1004.6
20260505203047 28 301 8.0 22.5 0.00 0.00 0.00 49 1004.7
20260505202518 28 168 4.8 20.9 0.00 0.00 0.00 50 1004.8
20260505202016 29 236 4.8 20.9 0.00 0.00 0.00 50 1004.8
20260505201537 30 230 9.7 20.9 0.00 0.00 0.00 52 1004.8
20260505201018 30 238 0.0 9.7 0.00 0.00 0.00 59 1004.6
20260505200518 30 184 1.6 9.7 0.00 0.00 0.00 54 1004.8
20260505200036 30 0 0.0 17.7 0.00 0.00 0.00 56 1004.9
20260505195516 30 0 0.0 19.3 0.00 0.00 0.00 58 1004.8
20260505195018 30 180 3.2 19.3 0.00 0.00 0.00 54 1004.7
20260505194548 30 161 0.0 9.7 0.00 0.00 0.00 59 1004.8
20260505194019 30 173 3.2 12.9 0.00 0.00 0.00 59 1004.7
20260505193517 30 0 0.0 14.5 0.00 0.00 0.00 64 1004.7
20260505193037 30 157 4.8 17.7 0.00 0.00 0.00 64 1004.8
20260505192518 30 173 4.8 17.7 0.00 0.00 0.00 64 1004.9
20260505192017 30 177 4.8 17.7 0.00 0.00 0.00 67 1004.8
20260505191553 30 144 4.8 17.7 0.00 0.00 0.00 67 1004.6
20260505191024 30 163 4.8 17.7 0.00 0.00 0.00 66 1004.4
20260505190520 30 175 6.4 19.3 0.00 0.00 0.00 65 1004.6
20260505190040 29 155 8.0 19.3 0.00 0.00 0.00 66 1004.6
20260505185545 29 167 6.4 17.7 0.00 0.00 0.00 67 1004.6
20260505185021 28 148 6.4 17.7 0.00 0.00 0.00 68 1004.6
20260505184537 29 173 8.0 19.3 0.00 0.00 0.00 66 1004.7
20260505184017 28 173 8.0 19.3 0.00 0.00 0.00 67 1004.5
20260505183518 28 155 8.0 19.3 0.00 0.00 0.00 66 1004.6
20260505183035 28 221 6.4 19.3 0.00 0.00 0.00 66 1004.6
20260505182518 29 174 4.8 17.7 0.00 0.00 0.00 64 1004.6
20260505182017 29 174 4.8 17.7 0.00 0.00 0.00 65 1004.9
20260505181537 29 183 8.0 19.3 0.00 0.00 0.00 63 1004.7
20260505181017 29 170 8.0 19.3 0.00 0.00 0.00 63 1004.7
20260505180518 28 149 6.4 17.7 0.00 0.00 0.00 66 1004.7
20260505180043 28 156 6.4 19.3 0.00 0.00 0.00 69 1004.7
20260505175517 28 188 9.7 19.3 0.00 0.00 0.00 70 1004.8
20260505175018 28 156 8.0 20.9 0.00 0.00 0.00 69 1004.7
20260505174535 27 154 8.0 22.5 0.00 0.00 0.00 69 1004.8
20260505174017 27 154 9.7 22.5 0.00 0.00 0.00 70 1004.7
20260505173519 27 153 8.0 25.7 0.00 0.00 0.00 72 1004.8
20260505173035 27 141 9.7 25.7 0.00 0.00 0.00 73 1004.8
20260505172517 26 149 8.0 22.5 0.00 0.00 0.00 75 1004.8
20260505172016 26 128 6.4 22.5 0.00 0.00 0.00 76 1004.7
20260505171532 26 154 11.3 22.5 0.00 0.00 0.00 74 1004.7
20260505171017 26 142 8.0 20.9 0.00 0.00 0.00 75 1004.7
20260505170518 26 142 11.3 20.9 0.00 0.00 0.00 75 1004.6
20260505170040 26 148 6.4 19.3 0.00 0.00 0.00 77 1004.7
20260505165518 25 148 8.0 17.7 0.00 0.00 0.00 77 1004.7
20260505165019 25 149 8.0 19.3 0.00 0.00 0.00 77 1004.8
20260505164536 25 140 9.7 19.3 0.00 0.00 0.00 77 1004.8
20260505164018 25 148 6.4 16.1 0.00 0.00 0.00 77 1004.7
20260505163520 25 153 6.4 22.5 0.00 0.00 0.00 77 1004.7
20260505163037 25 131 8.0 22.5 0.00 0.00 0.00 78 1004.6
20260505162516 25 161 8.0 20.9 0.00 0.00 0.00 78 1004.7
20260505162022 25 146 9.7 20.9 0.00 0.00 0.00 78 1004.7
20260505161534 24 159 6.4 19.3 0.00 0.00 0.00 78 1004.5
20260505161018 24 175 6.4 24.1 0.00 0.00 0.00 79 1004.5
20260505160518 24 229 12.9 27.4 0.00 0.00 0.00 78 1004.5
20260505153040 24 162 8.0 27.4 0.00 0.00 0.00 79 1004.5
20260505152519 24 168 9.7 29.0 0.00 0.00 0.00 79 1004.3
20260505152024 24 181 12.9 29.0 0.00 0.00 0.00 78 1004.3
20260505151537 23 148 14.5 27.4 0.00 0.00 0.00 78 1004.3
20260505151023 23 167 11.3 29.0 0.00 0.00 0.00 79 1004.2
20260505150522 24 157 12.9 29.0 0.00 0.00 0.00 78 1004.2
20260505140518 22 148 9.7 22.5 0.00 0.00 0.00 84 1004.0
20260505125021 20 132 6.4 16.1 0.00 0.00 0.00 88 1004.0
20260505124552 20 153 6.4 17.7 0.00 0.00 0.00 88 1003.8
20260505124021 20 161 8.0 19.3 0.00 0.00 0.00 88 1003.7
20260505123520 20 146 8.0 19.3 0.00 0.00 0.00 88 1003.5
20260505123053 20 141 9.7 20.9 0.00 0.00 0.00 89 1003.4
20260505122522 20 144 9.7 20.9 0.00 0.00 0.00 89 1003.3
20260505122021 20 140 9.7 20.9 0.00 0.00 0.00 89 1003.4
20260505121612 20 150 9.7 16.1 0.00 0.00 0.00 89 1003.4
20260505121021 20 137 8.0 14.5 0.00 0.00 0.00 89 1003.2
20260505120518 20 142 8.0 14.5 0.00 0.00 0.00 88 1003.2
20260505120042 20 147 8.0 17.7 0.00 0.00 0.00 88 1003.3
20260505115520 20 155 9.7 19.3 0.00 0.00 0.00 88 1003.4
20260505115020 20 126 11.3 19.3 0.00 0.00 0.00 88 1003.4
20260505114542 20 140 8.0 16.1 0.00 0.00 0.00 89 1003.2
20260505114020 20 142 8.0 16.1 0.00 0.00 0.00 89 1003.3
20260505113517 20 144 6.4 14.5 0.00 0.00 0.00 89 1003.2
20260505113036 20 159 6.4 12.9 0.00 0.00 0.00 89 1003.2
20260505112520 20 148 6.4 12.9 0.00 0.00 0.00 89 1003.1
20260505112018 20 129 6.4 14.5 0.00 0.00 0.00 89 1003.1
20260505111539 20 167 6.4 16.1 0.00 0.00 0.00 89 1003.0
20260505111018 20 146 8.0 16.1 0.00 0.00 0.00 89 1003.2
20260505110521 20 157 8.0 14.5 0.00 0.00 0.00 89 1003.1
20260505102020 20 139 8.0 16.1 0.00 0.00 0.00 87 1003.0
20260505101541 20 141 8.0 16.1 0.00 0.00 0.00 87 1003.2
20260505101020 20 142 6.4 12.9 0.00 0.00 0.00 87 1003.3
20260505100518 20 153 4.8 16.1 0.00 0.00 0.00 87 1003.3
20260505100043 20 153 4.8 16.1 0.00 0.00 0.00 87 1003.3
20260505095520 20 141 4.8 16.1 0.00 0.00 0.00 86 1003.3
20260505095022 20 139 6.4 19.3 0.00 0.00 0.00 87 1003.3
20260505094536 20 140 6.4 19.3 0.00 0.00 0.00 86 1003.0
20260505094019 20 140 8.0 20.9 0.00 0.00 0.00 86 1002.9
20260505093521 20 91 6.4 20.9 0.00 0.00 0.00 85 1002.8
20260505093040 20 145 8.0 19.3 0.00 0.00 0.00 85 1002.8